EHI
0 0 0 0 0 0 0 0 0 0 0 0 0 0 0 0 0 0 0 0 0 0 0 0 0 0 0 0 0 0 0 0 0 0 0 0 0 0 0 0 0 0 0 0
0 0 0 0 0 0 0 0 0 0 0 0 0 0 0 0 0 0 0 0 0 0 0 0 0 0 0 0 0 0 0 0 0 0 0 0 0 0 0 0 0 0 0 0
0 0 0 0 0 0 0 0 0 0 0 0 0 0 0 0 0 0 0 0 0 0 0 0 0 0 0 0 0 0 0 0 0 0 0 0 0 0 0 0 0 0 0 0
0 0 0 0 0 0 0 0 0 0 0 0 0 0 0 0 0 0 0 0 0 0 0 0 0 0 0 0 0 0 0 0 0 0 0 0 0 0 0 0 0 0 0 0
0 0 0 0 0 0 0 0 0 0 0 0 0 0 0 0 0 0 0 0 0 0 0 0 0 0 0 0 0 0 0 0 0 0 0 0 0 0 0 0 0 0 0 0
0 0 0 0 0 0 0 0 0 0 0 0 0 0 0 0 0 0 0 0 0 0 0 0 0 0 0 0 0 0 0 0 0 0 0 0 0 0 0 0 0 0 0 0
0 0 0 0 0 0 0 0 0 0 0 0 0 0 0 0 0 0 0 0 0 0 0 0 0 0 0 0 0 0 0 0 0 0 0 0 0 0 0 0 0 0 0 0
0 0 0 0 0 0 0 0 0 0 0 0 0 0 0 0 0 0 0 0 0 0 0 0 0 0 0 0 0 0 0 0 0 0 0 0 0 0 0 0 0 0 0 0
0 0 0 0 0 0 0 0 0 0 0 0 0 0 0 0 0 0 0 0 0 0 0 0 0 0 0 0 0 0 0 0 0 0 0 0 0 0 0 0 0 0 0 0
0 0 0 0 0 0 0 0 0 0 0 0 0 0 0 0 0 0 0 0 0 0 0 0 0 0 0 0 0 0 0 0 0 0 0 0 0 0 0 0 0 0 0 0
0 0 0 0 0 0 0 0 0 0 0 0 0 0 0 0 0 0 0 0 0 0 0 0 0 0 0 0 0 0 0 0 0 0 0 0 0 0 0 0 0 0 0 0
0 0 0 0 0 0 0 0 0 0 0 0 0 0 0 0 0 0 0 0 0 0 0 0 0 0 0 0 0 0 0 0 0 0 0 0 0 0 0 0 0 0 0 0
0 0 0 0 0 0 0 0 0 0 0 0 0 0 0 0 0 0 0 0 0 0 0 0 0 0 0 0 0 0 0 0 0 0 0 0 0 0 0 0 0 0 0 0
0 0 0 0 0 0 0 0 0 0 0 0 0 0 0 0 0 0 0 0 0 0 0 0 0 0 0 0 0 0 0 0 0 0 0 0 0 0 0 0 0 0 0 0
0 0 0 0 0 0 0 0 0 0 0 0 0 0 0 0 0 0 0 0 0 0 0 0 0 0 0 0 0 0 0 0 0 0 0 0 0 0 0 0 0 0 0 0
0 0 0 0 0 0 0 0 0 0 0 0 0 0 0 0 0 0 0 0 0 0 0 0 0 0 0 0 0 0 0 0 0 0 0 0 0 0 0 0 0 0 0 0
0 0 0 0 0 0 0 0 0 0 0 0 0 0 0 0 0 0 0 0 0 0 0 0 0 0 0 0 0 0 0 0 0 0 0 0 0 0 0 0 0 0 0 0
0 0 0 0 0 0 0 0 0 0 0 0 0 0 0 0 0 0 0 0 0 0 0 0 0 0 0 0 0 0 0 0 0 0 0 0 0 0 0 0 0 0 0 0
0 0 0 0 0 0 0 0 0 0 0 0 0 0 0 0 0 0 0 0 0 0 0 0 0 0 0 0 0 0 0 0 0 0 0 0 0 0 0 0 0 0 0 0
0 0 0 0 0 0 0 0 0 0 0 0 0 0 0 0 0 0 0 0 0 0 0 0 0 0 0 0 0 0 0 0 0 0 0 0 0 0 0 0 0 0 0 0
0 0 0 0 0 0 0 0 0 0 0 0 0 0 0 0 0 0 0 0 0 0 0 0 0 0 0 0 0 0 0 0 0 0 0 0 0 0 0 0 0 0 0 0
0 0 0 0 0 0 0 0 0 0 0 0 0 0 0 0 0 0 0 0 0 0 0 0 0 0 0 0 0 0 0 0 0 0 0 0 0 0 0 0 0 0 0 0
0 0 0 0 0 0 0 0 0 0 0 0 0 0 0 0 0 0 0 0 0 0 0 0 0 0 0 0 0 0 0 0 0 0 0 0 0 0 0 0 0 0 0 0
0 0 0 0 0 0 0 0 0 0 0 0 0 0 0 0 0 0 0 0 0 0 0 0 0 0 0 0 0 0 0 0 0 0 0 0 0 0 0 0 0 0 0 0
0 0 0 0 0 0 0 0 0 0 0 0 0 0 0 0 0 0 0 0 0 0 0 0 0 0 0 0 0 0 0 0 0 0 0 0 0 0 0 0 0 0 0 0
0 0 0 0 0 0 0 0 0 0 0 0 0 0 0 0 0 0 0 0 0 0 0 0 0 0 0 0 0 0 0 0 0 0 0 0 0 0 0 0 0 0 0 0
0 0 0 0 0 0 0 0 0 0 0 0 0 0 0 0 0 0 0 0 0 0 0 0 0 0 0 0 0 0 0 0 0 0 0 0 0 0 0 0 0 0 0 0
Wind_Speed
5 5 5 7 10 11 12 12 11 11 11 10 7 6 6 5 4 4 4 4 4 4 4 4 4 4 4 4 4 5 4 4 4 4 3 2 2 2 3 3 3 4 4 4
5 5 5 8 12 13 13 12 12 12 13 9 6 5 5 5 5 5 5 5 5 5 5 5 4 4 4 4 4 4 4 4 4 3 2 2 2 1 2 2 2 3 4 4
4 3 4 10 11 14 11 10 10 12 11 6 5 6 6 5 5 5 5 5 5 6 5 5 5 4 4 4 4 3 3 4 4 4 3 2 2 1 2 2 2 3 3 4
2 3 10 4 1 7 10 11 11 10 8 6 6 6 6 5 5 5 5 5 5 5 5 5 5 4 4 3 3 3 3 3 3 3 3 2 2 2 2 2 2 2 3 4
3 6 9 6 3 5 7 8 8 10 9 7 3 4 6 4 4 5 5 5 5 5 5 5 4 3 3 3 3 3 3 3 3 4 3 3 2 3 2 2 2 2 3 4
4 6 8 2 1 1 3 6 3 6 7 5 3 4 4 2 3 4 5 4 4 4 4 4 4 3 3 3 3 3 3 3 3 3 3 3 3 3 3 2 2 2 3 3
7 8 8 2 2 4 5 3 0 4 5 5 6 5 3 3 4 4 4 4 4 3 3 4 3 3 3 3 4 4 3 3 3 3 3 3 3 3 2 2 2 3 3 3
6 7 8 3 5 6 3 2 2 3 4 5 5 4 4 4 4 4 4 4 4 3 3 3 3 3 4 4 4 3 3 3 3 3 3 2 3 2 2 2 2 2 2 2
7 7 3 4 5 5 4 4 4 3 3 3 4 5 5 4 4 4 4 4 3 3 4 3 3 3 4 4 3 3 3 3 3 3 2 2 2 2 2 2 2 2 2 2
7 9 7 7 7 6 6 6 5 4 4 4 5 5 5 5 4 4 4 4 3 3 4 4 3 4 4 4 3 3 3 3 3 2 2 2 2 2 2 2 2 2 2 2
8 9 7 8 8 8 7 6 6 5 5 5 5 6 6 5 5 5 4 4 4 4 4 4 4 4 3 3 3 3 3 3 2 2 2 2 2 2 3 3 3 3 3 2
9 7 6 6 5 6 6 7 7 6 6 5 6 6 6 6 5 5 4 4 4 4 4 4 4 4 4 3 3 3 3 3 2 2 2 2 2 2 2 3 4 5 5 4
9 7 7 7 6 5 6 6 6 6 7 6 5 5 5 5 4 4 4 4 5 5 4 4 4 4 4 3 3 4 4 3 2 2 2 2 2 2 2 2 2 3 3 4
8 6 7 6 6 5 5 5 5 5 5 5 5 4 4 4 4 4 5 5 4 4 4 4 4 5 4 4 4 4 4 3 3 2 2 2 2 2 2 2 2 2 2 3
7 7 7 5 4 4 4 3 4 4 4 5 4 4 4 5 5 5 5 4 4 4 4 4 5 5 4 4 4 4 3 3 3 2 2 2 2 2 2 2 2 2 2 2
5 5 6 6 6 5 4 4 5 6 5 5 4 4 5 5 5 5 4 3 4 5 5 4 5 5 3 4 4 4 3 4 3 2 2 2 2 2 2 2 2 2 2 2
5 5 5 6 7 6 6 5 5 5 5 5 5 4 4 4 4 4 4 3 4 5 5 5 5 4 3 4 4 3 3 3 3 3 2 2 2 3 3 3 3 2 2 2
6 6 6 6 6 6 5 5 5 4 5 5 4 3 4 4 5 5 4 3 4 4 4 4 4 4 3 4 3 3 3 2 2 2 2 2 2 2 3 3 3 3 2 2
4 5 5 5 5 5 5 4 4 3 3 3 3 4 4 4 5 4 3 3 4 5 4 3 4 3 3 3 3 2 2 2 2 2 2 3 3 2 2 2 3 3 2 2
3 3 3 3 3 3 3 3 3 3 3 3 3 3 4 4 3 3 3 4 4 4 3 3 3 3 3 3 3 2 3 3 3 2 2 2 2 2 2 2 2 2 2 2
3 3 3 3 3 3 3 3 3 3 3 3 3 4 4 4 3 3 3 4 3 3 3 3 2 2 3 2 3 2 2 2 2 2 2 2 2 2 2 2 2 2 2 2
3 3 3 3 3 3 3 3 3 3 3 3 3 3 3 4 3 3 4 4 3 3 2 2 2 3 3 2 2 2 2 2 2 2 2 2 2 2 2 2 2 2 2 2
3 3 3 2 3 3 3 3 3 3 3 3 3 3 3 3 3 3 3 2 2 3 2 2 3 3 2 1 2 2 2 2 2 2 2 2 2 2 2 2 2 2 2 2
3 2 2 2 2 2 3 3 2 2 2 3 3 3 3 3 2 2 2 3 4 4 2 3 4 3 2 1 2 2 2 2 2 2 2 2 2 2 2 2 2 2 2 3
2 2 2 2 2 2 3 2 2 2 2 2 2 2 2 2 2 2 2 2 3 3 2 2 3 3 1 1 1 2 2 2 2 2 2 2 2 2 2 2 2 2 2 3
2 2 2 2 2 2 2 2 2 2 1 2 2 1 1 1 1 1 1 2 2 2 2 2 2 2 1 1 1 1 1 1 1 1 1 1 2 2 2 2 3 2 2 3
2 2 1 2 2 2 2 2 2 2 2 2 2 1 1 1 1 1 1 1 1 1 1 1 1 1 1 1 1 1 1 1 1 1 1 1 1 2 2 2 2 2 2 2
Wind_Direction
265 271 234 230 222 214 220 228 237 249 252 262 268 276 283 282 281 283 287 289 298 306 308 309 314 320 320 320 323 321 320 321 317 312 294 273 252 230 209 204 206 203 192 190
256 252 250 255 240 226 228 235 244 257 264 268 273 268 267 270 273 273 276 282 291 295 297 296 299 306 308 311 318 316 317 322 322 320 305 286 272 247 209 209 212 206 197 194
245 265 269 252 232 216 218 222 221 235 250 259 257 257 262 266 269 273 276 280 283 287 287 288 288 289 292 299 306 308 312 321 327 324 319 299 290 263 230 219 214 211 205 203
242 219 239 253 251 215 222 234 229 240 251 253 260 276 276 262 264 273 279 281 282 286 289 289 286 284 288 290 295 301 311 322 323 319 317 302 286 269 250 233 222 218 214 209
220 246 266 265 214 200 216 250 233 234 247 259 282 291 265 253 255 266 274 280 284 284 285 283 279 281 285 289 294 299 306 312 314 310 310 307 277 265 259 245 234 229 226 211
212 242 252 258 126 176 193 252 223 223 234 240 218 255 271 285 270 277 285 290 291 292 289 281 282 278 274 283 288 291 297 301 303 303 300 297 289 266 253 244 239 233 230 218
224 242 263 274 153 164 211 249 37 221 229 222 229 263 301 297 284 284 293 297 295 291 284 280 281 273 270 276 283 294 301 302 302 303 298 296 295 281 260 242 233 234 232 223
207 228 248 135 155 204 255 340 281 245 235 234 249 273 283 284 284 289 297 299 300 293 288 282 269 262 268 277 292 299 299 297 296 297 299 295 290 288 273 252 236 234 233 229
215 235 303 203 226 255 288 275 277 265 255 243 255 263 273 279 280 282 285 291 291 283 284 280 265 258 267 284 293 290 286 287 292 298 298 290 281 282 277 263 246 236 229 231
249 258 262 256 262 270 270 272 280 276 265 249 253 262 267 269 272 275 279 278 275 272 270 274 274 269 272 283 287 278 275 281 288 293 296 287 280 277 268 259 250 238 235 234
251 266 276 260 252 258 264 268 271 274 267 256 254 259 261 265 266 268 272 270 263 260 264 270 274 275 279 278 274 269 268 272 277 279 284 284 282 275 270 268 268 261 251 245
243 246 243 264 272 261 258 263 266 270 273 265 254 255 262 264 263 262 262 260 259 260 260 267 268 271 275 271 261 259 261 263 267 271 279 284 286 299 313 282 289 282 276 269
253 263 262 275 276 266 262 268 272 266 264 265 262 256 257 262 264 261 258 255 255 258 258 261 263 265 268 262 251 248 253 259 261 262 264 269 272 277 294 308 292 282 277 272
251 255 261 262 265 268 269 274 277 275 270 265 264 262 260 262 263 260 261 263 265 264 259 258 259 262 264 255 246 247 252 255 255 256 259 259 260 262 268 280 290 294 291 277
250 246 253 266 272 271 271 270 271 271 274 275 268 260 255 257 262 267 271 271 265 261 260 259 260 266 267 251 243 244 247 247 249 253 254 255 258 259 258 260 266 277 286 275
255 252 249 254 259 264 263 257 259 268 273 274 269 263 261 261 265 272 272 263 256 259 263 261 263 269 266 248 246 246 244 249 254 250 248 248 250 250 250 251 253 254 262 270
246 251 250 255 258 261 260 258 259 267 270 267 267 270 268 265 267 269 271 271 265 265 263 260 264 267 254 242 242 248 248 240 244 247 244 245 246 248 247 247 247 249 256 259
247 252 254 259 260 262 265 266 263 264 267 269 272 269 260 257 263 272 280 284 280 276 269 262 261 257 245 239 238 241 240 237 234 238 241 247 253 252 250 249 246 248 257 254
265 266 267 266 264 259 261 264 266 268 272 267 261 258 261 264 265 269 272 267 264 271 278 273 267 254 245 241 242 234 233 235 238 240 246 251 261 261 257 251 244 244 247 249
289 289 284 282 280 264 262 267 270 273 270 261 258 262 266 270 267 263 259 259 260 270 277 275 268 255 252 245 241 231 228 229 233 237 242 247 256 262 263 259 249 243 242 245
299 298 297 298 299 293 276 269 265 268 273 264 253 257 265 275 270 256 254 266 276 271 271 266 261 259 256 243 231 230 227 225 226 226 231 237 246 254 254 254 251 249 249 251
305 303 305 308 307 303 300 287 270 269 273 268 261 257 262 269 268 260 251 259 277 278 282 267 264 264 262 245 229 227 226 225 225 226 229 234 238 247 252 252 249 250 252 254
303 300 299 298 293 295 302 293 277 268 265 263 259 258 258 263 262 260 272 271 276 282 285 265 269 272 261 240 231 228 228 228 228 229 234 236 238 242 248 253 255 251 250 254
300 301 298 298 291 288 293 297 294 281 271 269 262 257 260 266 269 261 269 279 288 291 282 272 275 274 267 254 237 234 234 234 233 233 235 238 242 246 249 251 258 259 256 257
294 291 287 283 278 278 285 296 302 297 290 281 282 276 263 260 263 279 284 277 282 292 286 286 291 295 287 264 253 247 244 240 237 234 234 237 241 246 251 254 256 261 263 263
294 287 285 279 276 281 284 284 285 289 291 293 304 303 296 288 274 276 279 283 282 289 291 288 291 295 281 276 268 261 256 260 260 250 245 247 252 254 260 267 270 265 266 267
293 292 294 295 292 281 276 274 274 276 275 276 294 305 309 305 297 297 295 290 295 299 298 295 288 282 282 275 275 277 274 270 263 257 254 252 253 256 262 266 270 272 271 268